Weather History for Joplin, MO

Change the Weather History Date:

Sunday, August 4, 2013

  Actual Average Record
Temperature  
Mean Temperature 74 °F 81 °F  
Max Temperature 76 °F 92 °F 107 °F (2012)
Min Temperature 71 °F 70 °F 50 °F (1974)
Degree Days  
Heating Degree Days 0 0  
Month to date heating degree days 0 0  
Since 1 June heating degree days 12 5  
Since 1 July heating degree days 0 0  
Cooling Degree Days 9 16  
Month to date cooling degree days 50 64  
Year to date cooling degree days 925 1035  
Since 1 June cooling degree days 781 855  
Growing Degree Days 23 (Base 50)    
Moisture  
Dew Point 71 °F    
Average Humidity 94    
Maximum Humidity 100    
Minimum Humidity 87    
Precipitation  
Precipitation 1.26 in 0.10 in 1.26 in (2013)
Month to date precipitation 1.86 0.39  
Year to date precipitation 32.72 28.01  
Snow  
Snow 0.00 in - - ()
Month to date snowfall 0.0  
Since 1 June snowfall 0.0  
Snow Depth 0.00 in    
Sea Level Pressure  
Sea Level Pressure 30.07 in    
Wind  
Wind Speed 6 mph (East)    
Max Wind Speed 15 mph    
Max Gust Speed 18 mph    
Visibility 8 miles    
Events Fog , Rain , Thunderstorm    
T = Trace of Precipitation, MM = Missing Value Source: NWS Daily Summary

Daily Weather History Graph

Daily Weather History Graph

Search for Another Location

Airport:

Trip Planner

Search our weather history database for the weather conditions in past years. The results will help you decide how hot, cold, wet, or windy it might be!

Date:

Astronomy

Aug. 04, 2013 Rise Set
Actual Time 6:25 AM CDT 8:21 PM CDT
Civil Twilight 5:57 AM CDT 8:50 PM CDT
Nautical Twilight 5:22 AM CDT 9:24 PM CDT
Astronomical Twilight 4:45 AM CDT 10:02 PM CDT
Moon 4:27 AM CDT (8/4) 6:45 PM CDT (8/4)
Length of Visible Light 14h 53m
Length of Day
13h 56m
Waning Crescent, 4% of the Moon is Illuminated
Aug 4
Waning Crescent
Aug 6
New
Aug 14
First Quarter
Aug 20
Full
Aug 28
Last Quarter

Hourly Weather History & Observations

Time (CDT) Temp. Dew Point Humidity Pressure Visibility Wind Dir Wind Speed Gust Speed Precip Events Conditions
12:53 AM 75.9 °F 72.0 °F 87% 30.06 in 10.0 mi East 4.6 mph - N/A   Clear
1:53 AM 75.0 °F 72.0 °F 90% 30.03 in 10.0 mi East 8.1 mph - N/A   Clear
2:53 AM 73.9 °F 71.1 °F 91% 30.04 in 10.0 mi East 4.6 mph - N/A   Clear
3:53 AM 73.9 °F 71.1 °F 91% 30.05 in 10.0 mi East 4.6 mph - N/A   Clear
4:53 AM 73.9 °F 71.1 °F 91% 30.04 in 10.0 mi East 5.8 mph - N/A   Partly Cloudy
5:53 AM 73.9 °F 71.1 °F 91% 30.04 in 10.0 mi ESE 5.8 mph - N/A   Mostly Cloudy
6:53 AM 73.0 °F 71.1 °F 93% 30.06 in 10.0 mi SSE 5.8 mph - N/A   Mostly Cloudy
7:35 AM 73.4 °F 71.6 °F 94% 30.11 in 10.0 mi Calm Calm - N/A Thunderstorm Thunderstorm
7:53 AM 73.9 °F 71.1 °F 91% 30.09 in 5.0 mi NW 12.7 mph 17.3 mph 0.00 in Rain , Thunderstorm Light Thunderstorms and Rain
8:14 AM 71.6 °F 71.6 °F 100% 30.14 in 0.5 mi West 8.1 mph - 0.15 in Fog , Rain , Thunderstorm Light Thunderstorms and Rain
8:33 AM 71.6 °F 71.6 °F 100% 30.14 in 3.0 mi Calm Calm - 0.66 in Rain , Thunderstorm Light Thunderstorms and Rain
8:53 AM 71.1 °F 71.1 °F 100% 30.12 in 3.0 mi Calm Calm - 0.71 in Rain , Thunderstorm Light Thunderstorms and Rain
9:53 AM 72.0 °F 71.1 °F 97% 30.13 in 3.0 mi Calm Calm - N/A Rain , Thunderstorm Thunderstorms and Rain
10:38 AM 71.6 °F 71.6 °F 100% 30.16 in 3.0 mi NE 3.5 mph - 0.09 in Rain Light Rain
10:53 AM 72.0 °F 71.1 °F 97% 30.14 in 3.0 mi Variable 3.5 mph - 0.13 in Rain Rain
11:53 AM 73.0 °F 72.0 °F 96% 30.13 in 6.0 mi East 5.8 mph - 0.04 in Rain Rain
12:53 PM 73.0 °F 71.1 °F 93% 30.10 in 6.0 mi East 8.1 mph - 0.08 in Rain Light Rain
1:53 PM 73.0 °F 71.1 °F 93% 30.09 in 10.0 mi East 9.2 mph - 0.04 in Rain Light Rain
2:53 PM 73.9 °F 72.0 °F 93% 30.07 in 10.0 mi East 8.1 mph - 0.00 in Rain Light Rain
3:53 PM 73.9 °F 72.0 °F 93% 30.06 in 10.0 mi ESE 6.9 mph - 0.00 in   Mostly Cloudy
4:31 PM 73.4 °F 71.6 °F 94% 30.07 in 9.0 mi ESE 4.6 mph - 0.02 in Rain Light Rain
4:53 PM 75.0 °F 72.0 °F 90% 30.04 in 10.0 mi ESE 5.8 mph - 0.02 in   Mostly Cloudy
5:53 PM 75.0 °F 71.1 °F 87% 30.02 in 10.0 mi ESE 5.8 mph - 0.00 in   Mostly Cloudy
6:53 PM 73.9 °F 71.1 °F 91% 30.01 in 10.0 mi East 8.1 mph - N/A   Overcast
7:53 PM 73.0 °F 70.0 °F 90% 30.02 in 10.0 mi East 5.8 mph - N/A   Overcast
8:53 PM 73.0 °F 69.1 °F 87% 30.01 in 10.0 mi East 8.1 mph - N/A   Overcast
9:53 PM 72.0 °F 68.0 °F 87% 30.02 in 10.0 mi ESE 6.9 mph - N/A   Overcast
10:53 PM 71.1 °F 68.0 °F 90% 30.01 in 10.0 mi ESE 8.1 mph 16.1 mph N/A   Mostly Cloudy
11:53 PM 72.0 °F 68.0 °F 87% 30.01 in 10.0 mi SE 6.9 mph - N/A   Overcast